Tracking 30918 objects as of 2-Jul-2025
HD Live streaming from Space Station
objects crossing your sky now

SL-12 R/B(2)

Track SL-12 R/B(2) now!


NORAD ID: 17972
Int'l Code: 1987-040D
Perigee: 34,975.1 km
Apogee: 35,107.6 km
Inclination: 8.4 °
Period: 1,397.8 minutes
Semi major axis: 41412 km
RCS: 2.4813 m2 (large)
Launch date: May 11, 1987
Source: Commonwealth of Independent States (former USSR) (CIS)
Launch site: TYURATAM MISSILE AND SPACE COMPLEX (TTMTR)

Note: This is a ROCKET BODY
Your satellite tracking list
Your tracking list is empty




NASA's NSSDC Master Catalog

Two Line Element Set (TLE):
1 17972U 87040D   25182.40629559 -.00000153  00000-0  00000-0 0  9993
2 17972   8.3698 310.7552 0015996 311.4736  71.8056  1.03016845122426
Source of the keplerian elements: AFSPC